Weather in Sason

Turkey     38°20′21″N   41°24′16″E
temp.,
°C
wind,
m/s
gust,
m/s
humid.,
%
clouds,
%
prec.,
mm/h
press.,
hPa
HPBL,
m
28 september, tue
tue2800:00+18ne11230 0.0 100811
03:00+17ene22230 0.0 100711
06:00+16ne22250 0.0 100811
09:00+22sse22170 0.0 1009452
12:00+25ssw33160 0.0 10091351
15:00+26sw45140 0.0 10082427
18:00+21w11200 0.0 100911
21:00+20e22210 0.0 101011
29 september, wed
wed2900:00+18ene22240 0.0 101111
03:00+18ene22260 0.0 101111
06:00+17ne33270 0.0 101113
09:00+23sse24210 0.0 10111187
12:00+25s44190 0.0 10102589
15:00+26s34172 0.0 10083205
18:00+22wsw22223 0.0 100911
21:00+19ese22252 0.0 101011
30 september, thu
thu3000:00+18ene21325 0.0 101111
03:00+17ene22345 0.0 101111
06:00+17ne3335100 0.0 101115
09:00+22sse232899 0.0 10111328
12:00+25s44232 0.0 10112477
15:00+26s352113 0.0 10093095
18:00+21wsw222872 0.0 100916
21:00+19ese113412 0.0 101111
1 october, fri
fri100:00+18e11370 0.0 101111
03:00+17e22390 0.0 101111
06:00+16e11430 0.0 101211
09:00+21s22350 0.1 1013458
12:00+24sw56282 0.0 10131957
15:00+25wsw68254 0.0 10112720
18:00+21wnw11334 0.0 101111
21:00+20ene22352 0.0 101311
2 october, sat
sat200:00+18ene22380 0.0 101311
03:00+17ene22410 0.0 101311
06:00+16ne32410 0.0 101415
09:00+22s11300 0.0 1014540
12:00+25ssw45230 0.0 10132158
15:00+26sw45210 0.0 10122591
18:00+21w11300 0.0 101311
21:00+21ne33290 0.0 101417